Weather History for KDOV - July, 2013

Change the Weather History Date:

Tuesday, July 23, 2013

  Actual Average Record
Temperature  
Mean Temperature 80 °F -  
Max Temperature 87 °F 87 °F 100 °F (1955)
Min Temperature 73 °F 67 °F 54 °F (1977)
Cooling Degree Days 14    
Growing Degree Days 30 (Base 50)    
Moisture  
Dew Point 74 °F    
Average Humidity 88    
Maximum Humidity 100    
Minimum Humidity 62    
Precipitation  
Precipitation 0.63 in - - ()
Sea Level Pressure  
Sea Level Pressure 29.68 in    
Wind  
Wind Speed 9 mph (SW)    
Max Wind Speed 16 mph    
Max Gust Speed 20 mph    
Visibility 8 miles    
Events Rain , Thunderstorm    
Averages and records for this station are not official NWS values.
T = Trace of Precipitation, MM = Missing Value Source: NWS Daily Summary

Daily Weather History Graph

Daily Weather History Graph

Search for Another Location

Airport or City:

Trip Planner

Search our weather history database for the weather conditions in past years. The results will help you decide how hot, cold, wet, or windy it might be!

Date:

Astronomy

Jul. 23, 2013 Rise Set
Actual Time 5:54 AM EDT 8:21 PM EDT
Civil Twilight 5:24 AM EDT 8:52 PM EDT
Nautical Twilight 4:46 AM EDT 9:29 PM EDT
Astronomical Twilight 4:04 AM EDT 10:11 PM EDT
Moon 8:49 PM EDT (7/23) 6:59 AM EDT (7/23)
Length of Visible Light 15h 28m
Length of Day
14h 26m
Full, 99% of the Moon is Illuminated
Jul 23
Full
Jul 29
Last Quarter
Aug 6
New
Aug 14
First Quarter
Aug 20
Full

Hourly Weather History & Observations

Time (EDT) Temp. Heat Index Dew Point Humidity Pressure Visibility Wind Dir Wind Speed Gust Speed Precip Events Conditions
12:58 AM 78.3 °F - 77.7 °F 98% 29.76 in 10.0 mi SSE 8.1 mph - N/A   Overcast
1:58 AM 78.4 °F - 77.7 °F 98% 29.74 in 10.0 mi South 8.1 mph - N/A   Overcast
2:58 AM 77.0 °F - 75.2 °F 94% 29.73 in 10.0 mi West 9.2 mph - N/A   Mostly Cloudy
3:07 AM 77.0 °F - 73.4 °F 89% 29.72 in 10.0 mi West 10.4 mph - N/A Thunderstorm Thunderstorm
3:22 AM 77.0 °F - 73.4 °F 89% 29.72 in 10.0 mi SW 8.1 mph - N/A   Overcast
3:23 AM 77.0 °F - 73.4 °F 89% 29.72 in 10.0 mi SW 8.1 mph - N/A Rain Light Rain
3:38 AM 75.2 °F - 73.4 °F 94% 29.72 in 8.0 mi WSW 12.7 mph 19.6 mph N/A Rain Light Rain
3:58 AM 73.0 °F - 72.7 °F 99% 29.72 in 6.0 mi SSW 10.4 mph - 0.04 in Rain Light Rain
4:35 AM 73.4 °F - 71.6 °F 94% 29.70 in 5.0 mi SW 9.2 mph - N/A   Overcast
4:47 AM 73.4 °F - 73.4 °F 100% 29.70 in 10.0 mi SW 11.5 mph - N/A Rain Light Rain
4:57 AM 73.4 °F - 73.4 °F 100% 29.70 in 2.0 mi SW 10.4 mph - N/A Rain Heavy Rain
4:58 AM 73.0 °F - 72.7 °F 99% 29.71 in 2.0 mi SW 11.5 mph - 0.15 in Rain Heavy Rain
5:03 AM 73.4 °F - 73.4 °F 100% 29.70 in 1.8 mi SW 16.1 mph - N/A Rain Light Rain
5:08 AM 73.4 °F - 73.4 °F 100% 29.70 in 1.2 mi SSW 15.0 mph - N/A Rain Heavy Rain
5:12 AM 73.4 °F - 73.4 °F 100% 29.70 in 1.2 mi South 12.7 mph - N/A Rain Heavy Rain
5:17 AM 73.4 °F - 73.4 °F 100% 29.70 in 1.8 mi South 11.5 mph - N/A Rain Heavy Rain
5:22 AM 73.4 °F - 73.4 °F 100% 29.69 in 4.0 mi South 9.2 mph - N/A Rain Heavy Rain
5:33 AM 73.4 °F - 73.4 °F 100% 29.69 in 10.0 mi SSW 6.9 mph - N/A   Mostly Cloudy
5:58 AM 74.3 °F - 73.9 °F 99% 29.70 in 10.0 mi SSW 4.6 mph - 0.44 in   Partly Cloudy
6:58 AM 74.8 °F - 74.5 °F 99% 29.70 in 10.0 mi South 4.6 mph - N/A   Partly Cloudy
7:58 AM 77.7 °F - 77.5 °F 99% 29.69 in 9.0 mi South 9.2 mph - N/A   Partly Cloudy
8:38 AM 78.8 °F - 78.8 °F 100% 29.68 in 9.0 mi SSW 8.1 mph - N/A   Mostly Cloudy
8:58 AM 79.5 °F - 79.2 °F 99% 29.68 in 3.0 mi SW 9.2 mph - N/A   Overcast
9:03 AM 80.6 °F 88.1 °F 78.8 °F 94% 29.68 in 8.0 mi SW 10.4 mph - N/A   Overcast
9:28 AM 80.6 °F 88.1 °F 78.8 °F 94% 29.67 in 10.0 mi WSW 9.2 mph - N/A   Overcast
9:53 AM 82.4 °F 90.9 °F 77.0 °F 84% 29.67 in 10.0 mi WSW 6.9 mph - N/A   Mostly Cloudy
9:58 AM 81.9 °F 90.5 °F 77.9 °F 88% 29.68 in 10.0 mi West 8.1 mph - N/A   Mostly Cloudy
10:08 AM 82.4 °F 90.9 °F 77.0 °F 84% 29.66 in 10.0 mi Variable 6.9 mph - N/A   Scattered Clouds
10:58 AM 83.5 °F 91.9 °F 75.9 °F 78% 29.67 in 10.0 mi SW 9.2 mph - N/A   Mostly Cloudy
11:04 AM 82.4 °F 89.5 °F 75.2 °F 79% 29.66 in 10.0 mi WSW 8.1 mph - N/A Rain Light Rain
11:13 AM 82.4 °F 89.5 °F 75.2 °F 79% 29.66 in 10.0 mi WSW 9.2 mph - N/A   Mostly Cloudy
11:58 AM 84.4 °F 93.9 °F 76.6 °F 77% 29.66 in 10.0 mi WSW 9.2 mph - 0.00 in   Partly Cloudy
12:58 PM 84.6 °F 92.4 °F 74.8 °F 72% 29.66 in 10.0 mi West 9.2 mph - N/A   Mostly Cloudy
1:58 PM 84.9 °F 92.5 °F 74.1 °F 70% 29.65 in 10.0 mi West 9.2 mph - N/A   Mostly Cloudy
2:58 PM 86.0 °F 93.8 °F 73.8 °F 67% 29.64 in 10.0 mi SW 5.8 mph - N/A   Partly Cloudy
3:58 PM 86.7 °F 93.3 °F 72.1 °F 62% 29.63 in 10.0 mi WSW 13.8 mph - N/A   Partly Cloudy
4:58 PM 86.4 °F 93.4 °F 72.7 °F 64% 29.62 in 10.0 mi WSW 8.1 mph - N/A   Scattered Clouds
5:58 PM 86.0 °F 92.6 °F 72.3 °F 64% 29.62 in 10.0 mi West 8.1 mph - N/A   Clear
6:58 PM 84.4 °F 89.4 °F 70.9 °F 64% 29.62 in 10.0 mi WSW 9.2 mph - N/A   Partly Cloudy
7:58 PM 82.8 °F 87.7 °F 71.8 °F 69% 29.64 in 10.0 mi Variable 5.8 mph - N/A   Clear
8:58 PM 80.4 °F 84.4 °F 71.8 °F 75% 29.65 in 10.0 mi West 5.8 mph - N/A   Clear
9:58 PM 78.8 °F - 71.1 °F 77% 29.67 in 10.0 mi WSW 4.6 mph - N/A   Clear
10:58 PM 76.8 °F - 71.2 °F 83% 29.67 in 10.0 mi SW 5.8 mph - N/A   Clear
11:58 PM 74.7 °F - 71.6 °F 90% 29.68 in 10.0 mi SW 5.8 mph - N/A   Clear